Location: Unspecified
(0.0000°N, 0.0000°E)
Time: 05:54:27
(UTC+00:00)

ESSA 9 - Visible Passes

Search period start: 16 December 2018 00:00
Search period end: 26 December 2018 00:00
Orbit: 1425 x 1505 km, 101.7° (Epoch: 15 December)

Date Brightness Start Highest point End Pass type
(mag) Time Alt. Az. Time Alt. Az. Time Alt. Az.
16 Dec ? 22:32:42 10° SSW 22:33:37 13° SSW 22:33:37 13° SSW visible
17 Dec ? 21:35:20 10° S 21:36:50 17° S 21:36:50 17° S visible
18 Dec ? 22:34:22 10° SSW 22:35:18 13° SSW 22:35:18 13° SSW visible
19 Dec ? 21:36:55 10° S 21:38:31 17° S 21:38:31 17° S visible
20 Dec ? 22:36:02 10° SSW 22:36:59 13° SSW 22:36:59 13° SSW visible
21 Dec ? 21:38:30 10° S 21:40:11 18° S 21:40:11 18° S visible
22 Dec ? 20:43:17 10° SE 20:43:23 10° SE 20:43:23 10° SE visible
22 Dec ? 22:37:43 10° SSW 22:38:38 13° SSW 22:38:38 13° SSW visible
23 Dec ? 21:40:05 10° S 21:41:50 18° S 21:41:50 18° S visible
24 Dec ? 20:44:48 10° SE 20:45:02 11° SE 20:45:02 11° SE visible
24 Dec ? 22:39:24 10° SSW 22:40:18 13° SSW 22:40:18 13° SSW visible
25 Dec ? 21:41:40 10° S 21:43:29 18° S 21:43:29 18° S visible
